Theta_e
353 353 353 354 354 355 355 356 354 352 353 353 353 353 353 354 355 356 356 356 355 355 356 357 358 357 356 354 353 351 347 346 346 345 345 347 347 346 344 343 344 347 349 350 350 351 351 351 353 355 357 357 356 359 358 357 357 356 355 357 358 356 357
353 353 353 352 353 353 355 356 356 354 353 354 354 354 355 355 356 356 357 357 356 356 356 356 358 358 357 355 353 353 351 348 347 347 346 347 348 349 347 344 343 344 348 349 349 351 353 354 353 354 357 356 354 357 358 357 357 357 357 357 358 359 358
352 353 353 354 353 353 355 356 356 355 354 355 355 355 355 355 357 357 358 358 358 357 357 356 358 358 357 355 354 353 352 350 349 348 347 347 348 349 349 347 344 343 346 349 349 349 351 354 354 354 355 356 355 355 357 358 358 358 358 357 357 359 358
352 352 353 354 354 355 357 356 356 356 355 356 356 357 357 356 357 358 359 360 359 359 359 358 358 358 357 356 355 354 353 351 349 348 347 346 345 347 349 350 347 345 347 350 351 349 349 350 353 354 355 355 355 354 356 357 358 357 358 358 356 355 355
353 353 352 353 353 356 358 356 356 356 356 357 357 357 357 357 357 359 360 361 361 359 360 359 358 358 358 357 356 355 354 352 350 348 347 346 345 345 348 351 351 349 349 350 353 352 350 348 349 353 356 355 354 355 357 357 358 357 358 359 359 355 355
353 354 354 352 353 356 358 356 355 356 356 357 357 357 357 358 358 359 360 362 362 361 362 361 360 359 359 358 356 355 354 353 351 349 348 348 347 346 348 351 352 353 351 352 354 355 353 351 349 350 354 355 354 355 357 358 359 359 358 360 360 359 358
353 353 353 352 354 357 357 356 355 354 356 356 357 358 358 358 358 360 361 362 363 363 363 362 362 361 361 360 358 356 355 354 352 351 350 349 349 348 348 350 353 355 354 354 355 356 356 355 351 349 352 355 355 355 357 358 359 360 359 359 360 359 360
352 353 351 352 355 356 356 356 355 354 355 355 356 357 358 358 359 360 361 362 363 364 364 364 363 362 362 361 360 358 357 356 355 353 352 352 352 352 350 351 354 356 357 356 356 356 357 357 355 351 351 354 356 356 357 358 358 360 360 359 359 359 359
351 352 351 352 354 356 356 355 354 354 355 355 356 356 358 357 358 359 361 363 364 364 364 364 364 363 363 362 361 360 358 357 356 356 355 354 354 354 353 353 355 356 358 358 356 355 355 356 355 353 353 353 355 356 358 358 358 358 359 358 358 357 357
351 351 353 354 354 354 354 354 354 355 355 356 356 357 358 359 358 359 361 362 363 365 365 365 365 364 364 363 362 361 359 358 357 356 356 355 354 356 356 355 356 357 358 358 357 355 354 354 356 355 355 355 355 357 358 359 358 357 358 357 357 356 356
351 353 354 354 352 353 354 354 356 358 357 356 356 357 359 359 359 359 359 361 363 365 365 365 365 365 365 364 363 362 360 359 357 357 356 355 356 356 357 357 357 358 359 358 357 356 354 353 356 357 356 356 356 357 358 358 357 356 356 355 356 356 356
351 353 354 354 353 355 355 355 358 360 358 357 357 358 358 359 359 359 358 360 362 365 367 366 366 366 365 364 363 362 361 359 358 357 356 356 356 356 358 358 359 359 360 358 358 357 355 354 355 357 357 357 357 357 358 358 357 356 356 355 355 356 357
351 351 353 354 353 355 357 358 359 360 358 356 357 357 358 359 359 359 359 359 361 365 367 367 367 367 366 365 363 362 362 360 358 357 356 356 356 357 357 359 359 359 360 359 358 357 357 355 354 356 357 357 358 358 358 358 358 357 356 355 355 356 356
353 351 353 354 354 356 358 358 360 360 358 356 357 358 357 358 360 359 360 360 361 365 367 368 368 367 367 366 364 363 362 361 360 358 357 357 356 357 357 358 359 360 360 360 359 358 357 356 355 355 356 357 358 358 358 358 357 357 356 355 355 355 356
351 351 352 354 357 360 362 360 358 358 357 355 355 356 356 357 358 359 360 360 361 365 367 369 368 368 368 367 365 364 363 362 361 359 358 357 356 357 357 358 360 360 360 360 359 357 356 356 356 355 355 356 357 358 359 358 358 357 357 356 356 356 356
353 352 352 355 358 362 365 366 366 366 364 360 356 355 355 356 357 359 360 361 363 365 367 368 368 368 368 367 366 365 363 362 361 359 358 358 357 358 358 358 360 361 361 360 359 358 356 356 356 355 355 356 358 358 359 358 357 356 356 357 356 356 357
355 355 355 356 358 359 361 363 367 375 376 366 357 358 357 358 359 360 363 364 363 365 366 369 369 368 369 368 367 365 364 362 361 360 359 359 358 358 359 359 359 361 361 361 359 358 357 356 356 357 356 356 357 357 358 358 358 357 356 356 355 355 357
354 355 355 355 357 358 360 361 363 371 373 362 357 359 358 357 357 358 361 365 365 365 366 367 369 368 368 369 367 365 365 362 361 361 360 359 360 358 359 359 360 360 361 361 360 358 357 356 356 356 357 357 358 358 357 357 358 357 356 356 356 355 356
351 351 352 354 354 355 360 360 361 364 364 358 356 357 357 357 358 357 357 359 362 366 366 366 368 368 368 369 368 366 365 363 362 361 360 360 360 359 359 360 360 360 360 361 361 359 358 357 357 357 357 358 359 359 358 357 357 357 357 356 356 355 356
345 347 348 349 350 351 356 357 357 357 359 359 358 357 357 356 357 359 359 357 357 362 366 366 368 368 368 369 367 366 365 364 363 361 361 361 360 360 360 360 361 360 361 361 362 361 360 358 357 357 358 358 358 359 360 359 358 358 357 357 357 356 356
339 341 343 345 346 348 351 352 354 356 358 360 360 360 360 357 356 356 358 359 359 361 365 367 368 368 368 368 367 367 366 364 363 362 362 361 361 361 360 360 361 361 360 362 362 362 361 359 357 357 358 359 359 360 361 361 360 359 359 359 358 357 357
336 335 337 341 343 345 347 349 351 353 356 357 358 359 360 360 360 358 355 357 361 363 365 366 367 369 368 368 368 367 366 365 364 363 363 362 362 362 361 361 360 361 361 361 361 362 361 360 358 357 358 359 360 359 361 362 361 360 360 360 360 359 359
333 334 335 338 340 343 344 346 347 349 352 354 355 357 358 359 359 360 358 359 361 365 366 365 366 368 368 368 368 367 367 367 366 364 363 363 363 363 362 361 361 361 361 361 361 362 361 360 360 358 357 358 360 360 361 361 361 362 360 360 361 361 362
330 332 334 336 338 340 341 343 345 347 349 353 355 357 359 360 360 361 362 361 362 364 366 365 365 367 368 368 368 368 368 367 366 365 364 363 363 364 363 362 361 361 362 361 361 362 362 361 359 358 357 356 358 360 361 361 361 361 362 360 361 361 362
330 331 332 334 336 338 340 342 344 347 349 352 354 356 357 360 361 362 363 362 362 363 365 365 365 366 368 368 368 368 369 368 367 367 365 365 364 364 364 364 362 362 362 362 361 360 362 362 361 360 359 357 356 359 360 362 362 361 361 361 361 361 361
328 330 331 332 334 336 338 341 344 346 348 350 352 354 355 358 360 362 364 365 363 363 364 366 365 366 367 369 369 368 368 369 368 368 366 365 364 364 364 364 363 362 362 362 362 360 360 362 362 361 360 360 359 357 358 359 361 361 361 360 360 361 361
328 328 330 331 332 334 336 339 342 344 346 348 350 353 355 358 360 361 363 365 364 363 363 365 365 365 367 368 369 369 369 370 369 368 367 367 366 365 365 365 364 364 362 362 363 361 361 362 362 362 362 361 360 360 359 358 358 358 359 359 359 360 360
327 327 329 329 331 333 334 337 340 343 345 347 349 353 357 360 363 364 363 363 364 363 362 363 365 364 367 369 369 369 370 370 370 369 369 368 367 366 365 365 365 364 363 362 362 362 361 361 362 363 363 363 362 361 361 359 358 357 357 357 358 359 359
326 326 328 328 330 332 333 335 339 343 345 346 349 353 357 361 364 367 365 363 364 363 361 362 364 365 367 369 369 369 370 371 371 371 371 369 369 368 366 366 366 365 364 363 362 362 361 361 363 364 364 363 363 362 362 361 360 358 357 356 357 358 359
325 325 326 327 330 332 333 335 339 342 343 345 348 352 357 362 367 369 368 367 365 363 361 362 364 366 367 369 370 369 370 370 371 371 371 370 371 370 368 367 367 367 365 364 363 362 362 362 363 364 364 364 363 363 362 362 361 361 360 358 358 357 358
325 326 326 328 330 331 333 336 339 341 341 343 346 351 357 363 367 370 370 370 368 363 360 362 364 365 366 369 370 369 370 371 371 371 371 371 371 371 370 370 369 368 367 365 364 363 362 362 362 363 363 364 364 364 364 363 363 363 362 362 361 359 358
325 326 327 328 330 331 333 336 338 339 340 341 344 350 354 359 364 368 368 370 371 367 360 363 366 365 366 369 369 370 370 370 371 372 372 371 371 372 372 371 370 370 368 367 365 364 363 362 361 361 361 362 363 364 364 363 364 363 363 363 363 362 361
325 326 327 328 329 331 333 336 337 337 338 339 344 348 351 352 356 359 359 363 371 371 364 365 367 366 367 368 370 369 370 370 371 371 371 371 371 372 372 372 371 371 370 368 367 365 364 363 362 361 360 360 361 362 363 363 363 364 363 363 363 363 363
324 326 328 329 329 330 332 335 336 336 336 339 341 343 345 347 350 351 353 359 367 371 369 368 367 367 367 368 369 370 371 371 371 372 372 371 371 372 372 373 372 372 371 370 369 367 366 365 363 362 360 359 359 359 360 361 363 364 363 363 362 362 363
324 325 328 329 329 328 330 332 335 334 334 335 337 337 340 344 346 347 349 354 360 367 370 370 368 368 368 369 370 370 370 371 371 371 372 372 371 372 373 373 373 373 372 370 370 368 366 365 364 363 362 360 359 358 359 360 361 362 362 361 360 361 361
324 326 328 329 327 327 329 331 333 333 332 332 333 334 335 340 342 344 347 351 356 360 364 368 371 370 369 370 371 370 370 371 371 372 372 372 371 372 372 371 371 372 371 370 371 369 367 366 365 363 362 361 360 359 358 359 359 360 363 363 362 360 360
325 327 328 328 326 327 329 330 330 330 330 330 330 331 333 336 339 341 345 349 353 355 358 362 367 369 370 371 371 371 370 370 369 370 371 371 371 372 370 367 365 367 369 370 370 370 369 367 365 364 364 363 362 362 360 359 359 360 363 364 364 363 363
326 326 327 327 326 327 330 329 327 327 328 328 328 329 330 333 337 339 342 347 351 352 355 358 361 365 366 365 364 365 366 366 365 364 364 366 366 366 365 363 361 361 363 365 367 369 369 367 366 366 365 364 363 364 363 361 361 361 362 363 365 365 364
Wind_Speed
18 17 15 14 15 14 15 16 18 21 25 29 32 33 34 36 37 37 37 40 42 41 40 39 38 40 40 40 40 40 40 40 38 38 37 35 34 33 33 32 30 28 27 27 26 24 22 22 23 23 22 21 20 18 17 15 15 15 12 11 14 14 11
19 18 17 16 16 15 15 17 20 23 25 28 32 33 33 35 37 38 38 40 42 41 41 40 39 40 42 41 40 40 40 40 39 38 37 36 35 34 34 33 33 32 31 30 28 26 23 23 24 24 23 22 22 20 19 18 18 16 16 15 15 15 13
19 18 18 17 16 17 16 16 19 23 26 28 31 33 34 36 38 38 38 39 40 40 40 41 40 40 42 41 40 40 40 40 39 38 38 37 36 35 33 33 34 33 32 32 31 29 27 25 25 25 26 23 23 23 21 20 20 19 18 17 17 17 16
21 20 19 18 17 18 17 16 19 23 26 30 33 36 36 36 37 37 38 39 40 40 40 41 40 39 40 40 40 40 40 41 40 40 39 39 38 36 34 33 34 33 33 32 32 31 30 28 27 26 27 26 23 23 23 22 21 20 19 18 17 17 17
23 20 18 17 16 16 16 16 19 24 26 29 33 36 36 35 35 36 37 39 41 42 42 41 40 38 38 40 40 40 41 42 41 41 40 39 38 37 35 34 34 34 34 33 32 31 31 30 29 28 28 28 26 24 24 23 22 21 20 19 17 17 17
20 18 16 15 15 15 16 16 20 27 29 30 32 33 34 33 34 35 36 38 41 41 41 41 40 39 39 40 39 38 40 41 41 41 40 39 38 38 37 36 35 35 34 34 33 32 31 31 31 31 30 30 29 27 25 25 24 22 21 21 19 18 17
16 16 15 15 14 14 15 16 20 26 29 31 32 32 33 33 33 34 35 37 39 40 40 40 40 39 39 39 40 39 39 40 41 41 40 39 39 39 39 37 36 35 35 35 34 33 32 32 32 32 32 31 30 29 27 27 26 24 23 23 22 21 19
18 16 15 15 15 15 15 15 18 24 27 28 30 31 32 32 32 33 35 36 38 40 41 41 41 40 39 38 39 40 40 40 40 41 40 39 39 39 39 38 37 36 35 35 36 35 34 34 34 34 34 33 32 31 30 29 28 27 25 25 24 24 22
19 18 18 18 17 16 15 15 18 23 26 27 29 31 32 32 32 33 34 35 37 39 40 41 40 40 39 39 39 39 39 39 40 40 40 39 39 39 39 39 38 37 36 36 36 37 36 35 35 36 36 35 34 32 31 31 30 29 28 27 26 26 25
20 18 18 18 17 15 14 15 17 19 21 24 27 30 33 34 33 32 32 34 35 37 38 39 39 39 38 38 39 39 39 39 40 40 40 40 39 39 39 39 38 37 37 36 36 37 37 36 36 37 37 36 35 34 33 32 31 31 30 29 28 27 27
17 17 19 20 18 16 16 16 15 15 17 22 26 29 32 34 34 33 33 34 34 35 37 37 37 38 38 38 38 39 39 40 40 40 40 40 39 39 38 37 37 37 37 37 36 36 38 36 35 37 38 37 36 35 35 34 33 33 32 31 29 28 27
12 12 16 20 19 17 18 17 16 15 17 22 26 28 30 32 34 34 34 34 34 34 36 37 37 37 37 38 39 39 40 41 41 41 41 41 39 38 38 37 37 37 37 37 36 36 37 37 36 37 38 38 37 36 36 35 35 34 33 32 30 29 28
15 14 15 18 18 17 17 16 17 18 18 22 26 28 30 32 33 33 34 34 34 35 36 36 36 37 37 37 39 39 40 41 42 42 42 42 40 39 38 37 37 37 37 37 37 36 36 38 37 37 38 38 37 37 37 36 36 36 35 33 31 30 29
8 14 15 14 14 16 18 18 19 19 18 22 26 27 28 31 33 34 35 35 34 35 37 37 37 37 37 37 38 39 41 42 42 42 42 42 41 39 38 38 37 37 37 37 38 37 36 37 39 38 37 37 37 37 37 37 36 36 36 35 33 31 30
17 9 8 7 6 3 6 11 13 15 17 21 26 28 28 28 30 32 33 35 35 35 35 37 38 38 37 37 38 39 40 41 41 41 40 41 41 40 39 39 38 37 37 38 38 37 36 36 38 38 37 37 37 37 37 37 37 37 37 36 35 33 32
18 17 16 15 16 16 12 6 3 1 3 7 12 18 23 26 30 33 34 34 35 35 36 37 37 37 37 37 38 39 38 39 40 40 39 40 41 40 40 39 38 37 37 38 39 38 36 36 37 38 38 37 37 37 37 37 38 38 38 37 37 35 33
16 16 16 15 15 17 15 11 8 8 8 7 7 5 1 4 12 24 32 34 34 34 34 36 37 37 37 37 37 37 37 38 39 39 39 40 41 40 39 39 39 38 38 39 39 39 37 35 36 37 37 37 38 37 37 37 38 39 39 38 38 37 35
16 15 15 15 14 16 15 12 8 7 8 7 9 11 10 11 10 9 15 23 32 35 33 33 36 37 36 36 37 37 38 39 39 39 39 39 40 41 40 39 39 38 37 38 40 40 38 36 36 37 37 36 37 38 37 38 38 39 40 40 39 38 37
16 15 15 14 14 15 14 11 10 8 8 8 9 10 9 8 5 4 14 17 17 27 32 31 33 36 35 35 37 38 38 39 40 40 40 39 40 41 40 38 38 38 38 38 39 40 39 37 35 36 37 36 36 37 38 38 38 38 39 40 40 40 38
16 16 15 14 14 14 11 9 11 12 11 10 9 7 6 4 8 17 20 17 17 22 30 30 30 34 35 35 37 39 38 39 40 40 40 40 39 40 40 39 38 38 37 37 38 39 40 38 35 34 37 38 37 37 38 38 38 38 38 39 40 40 40
16 17 16 15 14 14 11 9 11 16 17 17 15 9 4 3 12 22 26 24 24 28 31 30 29 32 35 35 37 39 39 39 40 40 39 39 39 39 40 40 39 38 36 35 36 38 40 40 38 35 36 38 38 37 37 37 38 38 38 38 39 39 40
16 16 14 14 14 13 14 15 15 17 19 21 21 14 8 6 11 21 27 31 33 34 33 32 30 32 35 36 38 40 41 40 39 39 39 39 38 38 40 40 39 38 37 35 35 37 38 39 39 37 35 36 37 37 36 36 37 38 38 37 37 38 39
15 16 15 16 17 17 19 21 21 22 20 20 22 20 16 16 16 16 18 22 27 31 33 33 31 32 35 37 38 40 41 40 40 39 39 39 38 38 39 40 40 39 37 35 33 34 36 38 38 37 36 35 36 37 37 36 36 37 38 37 37 36 37
14 17 18 20 21 22 23 24 24 25 23 20 20 21 21 21 22 22 20 18 17 21 28 32 31 32 34 37 39 40 40 40 40 39 39 39 39 39 38 39 40 39 38 36 34 33 35 37 37 37 37 36 35 35 36 36 36 37 36 36 37 37 37
14 17 20 22 22 22 24 26 25 24 24 22 21 22 24 24 23 22 22 22 19 17 22 29 33 33 34 36 38 38 39 39 40 40 40 40 40 39 38 39 39 39 38 37 35 33 33 35 35 35 36 37 36 34 34 34 36 37 37 36 36 37 39
15 17 20 22 24 24 25 25 23 22 22 22 24 26 27 27 25 22 22 24 23 20 21 29 36 35 33 33 35 37 38 39 40 40 40 40 40 38 37 37 37 38 38 37 36 33 32 33 34 34 34 35 36 35 35 33 33 34 36 36 36 38 39
19 19 21 22 25 26 25 23 23 23 22 23 25 26 26 26 25 24 23 23 23 24 26 31 36 35 31 32 34 36 38 38 39 40 39 38 37 36 36 36 36 37 38 37 36 34 32 32 33 33 33 34 34 35 36 36 35 33 33 34 35 37 39
19 20 21 23 25 25 25 24 24 24 24 25 25 25 25 25 25 27 26 24 24 29 31 31 33 34 32 33 35 35 36 37 37 38 37 36 36 36 35 36 36 36 37 37 36 35 33 32 32 32 32 33 34 34 35 37 38 38 37 36 35 35 38
15 17 21 24 24 25 25 23 23 24 25 26 25 25 26 25 26 28 26 26 30 34 32 28 30 34 33 33 35 35 35 36 37 37 36 35 36 36 35 35 35 35 36 36 35 35 34 32 31 31 30 31 32 34 35 36 38 40 41 41 39 38 38
14 17 21 23 24 27 26 24 23 25 26 26 26 27 27 26 25 25 25 28 34 35 30 26 30 35 34 33 35 35 35 36 36 37 36 35 36 36 34 34 34 34 35 36 35 33 33 32 31 30 29 29 31 33 35 36 37 40 42 43 42 41 40
15 17 20 21 24 27 26 24 25 25 26 27 28 28 28 26 24 23 25 31 33 32 29 27 30 34 34 34 35 35 35 35 35 35 35 35 35 35 34 34 33 33 33 34 34 33 32 31 31 29 28 29 30 32 35 37 37 38 41 42 42 41 41
15 19 21 22 25 27 26 24 24 25 26 28 29 27 27 27 25 23 28 34 32 29 29 28 31 35 34 34 35 35 35 34 33 34 35 35 35 34 34 33 33 32 32 32 33 33 31 31 31 30 28 29 30 31 34 36 36 37 39 41 41 41 41
13 18 20 22 24 26 25 23 22 23 26 28 28 27 28 28 26 25 30 33 28 24 29 29 31 34 34 33 33 33 34 33 32 31 32 33 33 32 33 34 33 32 31 32 32 31 30 30 30 30 29 28 29 30 31 32 34 36 38 40 42 43 43
13 16 18 23 26 26 25 23 22 23 25 25 27 29 30 28 27 28 30 31 26 16 24 32 33 32 32 33 33 32 33 32 32 31 30 31 31 30 30 32 33 32 33 34 34 32 32 32 32 33 33 32 30 29 27 28 32 36 39 43 44 43 43
15 16 16 19 24 26 26 24 22 23 25 26 28 30 30 29 29 30 30 29 26 18 11 22 31 32 31 30 30 30 31 31 30 30 29 29 30 30 29 30 32 32 32 34 37 37 36 35 35 36 36 35 33 31 27 27 32 37 40 43 43 42 42
14 16 17 18 20 24 27 25 24 24 25 28 30 30 30 30 30 30 30 28 25 22 16 8 14 23 28 29 28 28 30 30 29 29 29 28 27 27 27 29 32 32 31 32 36 38 37 35 35 35 34 33 34 35 34 34 35 34 34 36 38 39 39
12 14 17 18 19 23 25 25 25 26 26 29 31 31 31 30 30 29 29 27 24 21 17 14 9 8 15 20 23 24 24 24 22 23 25 27 28 29 29 27 27 29 30 31 32 35 36 35 33 33 33 34 34 34 35 35 32 29 29 30 32 33 34
12 15 17 19 20 21 22 22 24 26 27 29 31 33 32 30 29 30 29 26 23 20 16 12 10 7 3 5 8 12 18 22 20 16 15 16 17 22 27 28 25 23 24 27 30 33 35 35 32 31 33 34 33 32 33 34 32 30 28 28 27 27 29
Wind_Direction
179 183 185 188 189 185 182 183 185 181 178 179 182 182 181 181 181 182 184 186 188 190 191 191 192 192 194 195 196 196 196 196 196 196 196 196 198 199 199 200 200 198 197 197 197 199 200 200 204 207 209 206 199 200 204 201 196 195 198 190 178 184 193
181 185 185 184 186 186 182 180 182 183 181 181 183 183 182 182 183 183 185 187 188 190 191 193 193 193 195 196 197 197 198 197 197 196 196 197 198 200 201 201 202 202 202 203 202 201 202 202 204 206 208 209 204 201 203 203 199 196 200 199 185 181 190
183 187 186 184 183 183 182 178 179 183 184 183 183 184 185 184 185 185 185 186 188 189 192 194 195 196 196 197 197 199 199 199 198 197 198 198 198 200 201 203 204 205 205 207 207 205 203 203 205 207 208 210 208 205 205 206 205 201 201 205 200 192 195
184 187 186 185 183 181 181 179 178 181 185 185 184 185 188 187 186 185 185 186 187 189 191 195 197 198 198 198 198 199 200 201 200 200 200 201 201 201 202 203 205 205 206 207 210 210 207 205 206 209 209 209 209 207 207 208 208 206 204 206 206 203 204
185 186 183 182 181 179 180 180 180 180 183 186 185 185 187 187 186 186 186 186 188 190 192 194 197 199 200 200 200 201 202 202 202 202 202 202 203 202 202 204 204 204 206 207 209 211 210 208 207 209 209 208 209 207 207 208 209 207 203 203 206 206 207
182 181 180 181 178 177 180 180 182 182 182 184 185 185 186 186 186 186 187 186 188 190 191 193 196 199 201 202 203 203 203 203 203 203 203 203 203 203 203 204 204 204 205 206 207 209 209 208 207 207 208 208 207 207 207 207 208 208 204 201 205 206 206
178 180 178 177 177 177 180 180 182 184 185 185 186 186 186 187 187 187 187 188 187 188 190 192 195 198 200 202 203 204 204 204 204 203 204 204 204 204 204 204 204 205 205 205 205 206 207 206 205 205 207 206 206 206 208 208 207 208 206 202 204 206 206
176 175 175 177 178 179 180 181 182 183 185 186 186 187 187 188 189 189 189 189 188 188 189 192 194 197 200 202 203 205 206 205 204 203 203 203 204 205 205 204 205 205 204 204 205 205 205 205 204 204 205 204 205 206 208 209 207 206 207 206 207 208 208
177 173 175 178 177 177 179 181 181 180 182 184 185 187 188 190 192 191 190 189 189 190 190 192 194 197 199 201 203 205 206 205 204 204 203 203 204 205 205 205 205 205 204 205 206 206 205 206 205 204 204 204 205 206 207 209 209 207 208 210 210 211 211
176 175 175 177 177 176 176 178 180 179 181 183 184 186 188 191 193 192 189 189 191 192 192 192 193 196 198 201 203 204 205 206 205 204 203 203 204 205 206 205 205 205 205 205 206 207 207 208 207 204 203 203 204 205 206 209 210 209 210 212 213 214 214
177 179 176 176 177 174 172 175 179 180 181 183 185 187 188 190 192 193 193 193 192 192 192 193 194 195 198 200 202 203 204 205 204 204 204 204 204 205 205 205 204 205 205 205 205 206 207 207 207 204 202 202 203 205 206 209 211 210 210 212 214 216 216
189 187 179 176 176 174 174 176 177 177 178 182 185 188 188 189 191 193 196 196 194 190 190 193 194 196 198 199 200 202 203 203 203 204 204 203 204 205 204 204 204 204 205 205 205 205 206 206 205 204 203 203 204 205 206 209 210 210 210 212 214 216 218
189 188 184 180 177 174 173 175 177 178 179 182 186 187 188 189 191 192 196 199 196 191 189 191 193 196 198 199 200 202 203 203 203 203 204 203 203 204 204 204 204 204 205 205 205 205 205 205 205 204 205 205 205 206 207 208 210 211 211 212 213 215 217
139 174 180 180 180 180 178 177 177 178 180 184 186 187 188 189 191 192 195 199 198 192 189 189 192 195 197 198 200 202 202 203 203 203 203 203 203 203 203 203 204 205 205 205 205 206 205 205 205 205 205 206 206 207 208 209 210 212 212 212 213 215 217
55 80 99 89 69 82 169 177 181 183 185 187 187 186 185 187 191 193 196 200 198 193 190 189 191 194 196 197 199 201 202 202 202 203 203 203 203 203 203 203 203 204 204 205 205 206 206 205 205 205 205 206 206 206 208 209 211 212 212 212 211 213 217
48 49 51 53 47 40 42 50 54 112 171 189 189 187 187 187 191 194 196 199 198 194 191 190 191 193 196 198 199 200 201 201 201 202 203 202 202 203 203 203 202 203 203 204 205 206 206 206 205 205 205 205 206 206 207 209 212 213 214 213 212 212 215
42 43 42 41 48 49 44 40 39 42 43 39 43 49 69 212 209 204 198 194 195 196 193 191 191 194 195 197 198 198 198 200 200 201 202 203 203 203 203 203 202 202 202 203 204 205 206 205 204 204 205 206 206 206 206 209 212 213 214 215 215 213 213
34 36 36 31 36 43 36 25 26 50 57 53 56 55 38 14 349 284 232 205 196 194 194 193 192 194 196 196 195 196 197 198 199 200 202 202 202 203 203 203 203 203 202 202 203 203 204 206 205 204 204 205 206 207 208 210 213 214 214 216 217 216 215
25 24 28 25 26 36 37 17 359 21 55 56 57 72 78 61 45 281 274 270 231 199 193 195 195 194 195 195 194 196 197 197 198 200 201 202 203 203 203 203 203 204 203 203 202 202 203 206 206 204 203 204 206 207 210 212 214 216 216 217 219 219 218
16 13 16 17 16 23 34 18 350 358 27 31 26 56 94 136 180 197 218 249 257 223 201 196 197 194 194 195 194 195 197 197 198 199 201 202 202 202 203 204 204 205 205 204 202 201 203 205 207 205 203 203 205 206 209 213 215 217 219 220 222 222 221
8 5 5 5 5 5 9 7 358 0 5 358 354 20 71 224 227 220 216 216 227 227 211 199 197 195 194 195 194 195 196 197 198 199 200 201 201 201 203 204 205 206 205 204 203 202 203 204 206 207 204 203 204 205 208 212 215 217 219 222 224 224 224
360 358 357 356 355 353 351 352 357 358 353 345 343 351 0 321 262 240 231 223 222 221 210 201 200 196 194 196 195 194 196 196 197 199 199 200 201 201 202 204 205 206 206 205 204 204 204 204 206 208 206 204 204 205 207 211 214 216 218 222 224 225 224
353 350 350 348 345 344 346 347 348 344 338 335 332 325 319 314 299 277 258 240 228 217 205 201 202 198 195 196 196 195 196 196 197 198 199 199 200 202 202 203 204 205 205 205 204 203 204 204 205 207 208 206 205 205 207 210 213 216 218 221 223 223 223
354 347 345 344 342 343 343 342 338 332 328 325 321 318 316 313 307 300 292 281 258 230 210 204 204 202 198 197 197 196 195 196 197 198 199 200 201 202 202 202 203 204 204 205 204 204 204 204 205 207 208 209 208 207 207 209 212 215 217 219 221 221 221
353 347 342 341 341 340 338 334 330 328 327 325 320 319 318 316 311 301 288 281 275 252 223 211 208 206 202 200 198 197 195 196 198 199 199 201 202 203 202 202 202 203 204 205 206 205 204 204 204 206 208 210 212 211 210 210 211 214 216 218 220 219 219
349 346 342 340 340 338 335 332 330 329 327 323 319 318 315 310 306 299 286 276 269 257 238 223 215 210 205 201 198 197 197 197 198 200 200 202 203 203 203 202 202 202 203 205 206 206 205 203 204 206 207 210 213 214 214 213 212 213 216 219 220 220 218
346 343 340 338 337 338 336 333 329 326 321 318 315 313 310 306 299 290 283 275 264 255 249 236 222 212 205 200 197 198 198 198 199 200 201 202 203 203 204 203 202 202 202 204 205 206 206 204 203 205 208 209 212 214 217 218 217 217 218 219 220 221 219
345 341 339 338 337 337 336 331 327 323 321 321 318 313 311 308 300 289 282 275 264 257 255 244 224 211 204 199 197 198 199 199 200 199 200 201 202 203 205 204 203 203 202 202 204 205 206 206 204 204 207 209 212 214 217 219 221 222 223 223 222 222 220
346 340 339 338 337 336 335 330 327 325 323 321 317 315 313 309 301 292 281 272 267 262 257 245 222 209 202 198 197 198 199 199 199 199 199 200 201 203 205 204 204 204 202 202 203 204 205 206 204 203 205 207 211 214 217 218 220 222 224 225 225 225 224
345 341 339 337 335 335 333 329 327 326 325 322 318 316 313 307 303 298 288 280 273 263 253 241 220 206 200 198 196 198 199 199 199 199 198 199 200 202 204 204 204 204 203 202 203 203 204 205 204 202 203 205 208 212 215 217 219 221 224 225 226 227 227
341 337 337 338 338 336 333 331 330 329 327 324 321 318 315 311 308 303 299 296 284 262 246 233 214 201 198 198 196 196 198 198 198 199 198 199 200 200 202 203 202 203 203 202 202 203 204 204 204 203 202 204 207 210 213 215 217 220 223 226 227 227 229
343 338 336 340 342 338 334 333 333 333 332 327 323 322 321 318 316 311 311 311 295 262 239 224 208 199 197 197 196 196 197 197 198 199 198 199 200 201 202 202 202 203 203 202 203 205 205 204 204 205 205 206 207 209 211 213 214 217 221 224 225 227 229
345 339 336 337 340 339 337 337 337 337 335 329 326 328 326 321 321 320 321 323 309 263 231 214 203 199 197 196 195 195 195 195 197 198 199 199 200 201 202 203 203 204 204 203 204 205 205 204 205 206 208 209 209 209 210 211 212 215 219 221 224 226 227
342 338 336 338 341 343 342 340 340 341 337 331 331 332 326 321 325 328 327 332 329 285 228 208 200 199 198 195 194 194 194 196 196 196 197 200 201 202 203 203 204 205 205 205 204 203 203 203 204 206 208 209 210 209 209 209 211 214 217 220 222 224 225
339 335 337 341 343 346 345 341 341 344 342 336 336 334 327 324 328 332 331 334 338 330 264 211 201 199 198 195 194 193 193 195 196 196 198 201 202 204 205 204 206 209 210 209 208 207 205 204 205 207 209 209 209 209 208 210 214 217 219 221 222 224 225
340 334 339 346 347 349 349 345 344 347 345 340 337 334 330 328 329 332 336 337 337 339 333 287 219 205 200 196 194 194 193 193 195 197 198 200 203 204 204 203 205 208 211 213 214 213 212 211 211 211 209 209 211 212 212 215 219 221 222 224 225 226 228
349 340 341 345 349 353 354 351 347 347 345 341 338 334 330 329 330 333 339 343 341 338 337 336 318 251 212 200 195 193 190 189 193 199 202 203 203 202 199 199 203 207 209 212 215 215 214 215 215 215 212 211 213 214 215 219 223 224 225 226 226 227 229
357 352 348 345 347 354 358 356 350 346 343 340 339 336 332 329 332 338 343 347 347 343 338 335 335 326 271 200 183 179 178 180 187 201 215 215 212 205 196 191 193 202 209 212 212 211 211 212 213 214 214 214 214 215 216 219 222 225 227 227 226 226 228